Time,TemperatureF,DewpointF,PressureIn,WindDirection,WindDirectionDegrees,WindSpeedMPH,WindSpeedGustMPH,Humidity,HourlyPrecipIn,Conditions,Clouds,dailyrainin,SolarRadiationWatts/m^2,SoftwareType,DateUTC
2013-04-19 00:03:00,47.0,39.0,-100.00,South,189,5.0,17.0,74,0.00,,,0.00,0.000000,,2013-04-19 04:03:00,
2013-04-19 00:13:00,47.0,39.0,-100.00,South,189,5.0,17.0,74,0.00,,,0.00,0.000000,,2013-04-19 04:13:00,
2013-04-19 00:23:00,47.0,39.0,-100.00,South,189,5.0,17.0,74,0.00,,,0.00,0.000000,,2013-04-19 04:23:00,
2013-04-19 00:52:00,47.0,41.0,-100.00,South,171,3.0,10.0,78,0.00,,,0.00,0.000000,,2013-04-19 04:52:00,
2013-04-19 01:03:00,47.0,41.0,-100.00,South,171,3.0,10.0,78,0.00,,,0.00,0.000000,,2013-04-19 05:03:00,
2013-04-19 01:12:00,47.0,41.0,-100.00,South,171,3.0,10.0,78,0.00,,,0.00,0.000000,,2013-04-19 05:12:00,
2013-04-19 01:22:00,47.0,41.0,-100.00,South,171,3.0,10.0,78,0.00,,,0.00,0.000000,,2013-04-19 05:22:00,
2013-04-19 01:52:00,47.0,42.0,-100.00,SE,144,3.0,11.0,84,0.00,,,0.00,0.000000,,2013-04-19 05:52:00,
2013-04-19 02:02:00,47.0,42.0,-100.00,SE,144,3.0,11.0,84,0.00,,,0.00,0.000000,,2013-04-19 06:02:00,
2013-04-19 02:12:00,47.0,42.0,-100.00,SE,144,3.0,11.0,84,0.00,,,0.00,0.000000,,2013-04-19 06:12:00,
2013-04-19 02:22:00,47.0,42.0,-100.00,SE,144,3.0,11.0,84,0.00,,,0.00,0.000000,,2013-04-19 06:22:00,
2013-04-19 02:53:00,47.0,43.0,-100.00,SSE,164,3.0,7.0,85,0.00,,,0.00,0.000000,,2013-04-19 06:53:00,
2013-04-19 03:02:00,47.0,43.0,-100.00,SSE,164,3.0,7.0,85,0.00,,,0.00,0.000000,,2013-04-19 07:02:00,
2013-04-19 03:12:00,47.0,43.0,-100.00,SSE,164,3.0,7.0,85,0.00,,,0.00,0.000000,,2013-04-19 07:12:00,
2013-04-19 03:21:00,47.0,43.0,-100.00,SSE,164,3.0,7.0,85,0.00,,,0.00,0.000000,,2013-04-19 07:21:00,
2013-04-19 03:52:00,47.0,43.0,-100.00,SSW,205,3.0,11.0,85,0.00,,,0.00,0.000000,,2013-04-19 07:52:00,
2013-04-19 04:02:00,47.0,43.0,-100.00,SSW,205,3.0,11.0,85,0.00,,,0.00,0.000000,,2013-04-19 08:02:00,
2013-04-19 04:12:00,47.0,43.0,-100.00,SSW,205,3.0,11.0,85,0.00,,,0.00,0.000000,,2013-04-19 08:12:00,
2013-04-19 04:22:00,47.0,43.0,-100.00,SSW,205,3.0,11.0,85,0.00,,,0.00,0.000000,,2013-04-19 08:22:00,
2013-04-19 04:52:00,48.0,44.0,-100.00,South,190,2.0,10.0,86,0.00,,,0.00,0.000000,,2013-04-19 08:52:00,
2013-04-19 05:01:00,48.0,44.0,-100.00,South,190,2.0,10.0,86,0.00,,,0.00,0.000000,,2013-04-19 09:01:00,
2013-04-19 05:12:00,48.0,44.0,-100.00,South,190,2.0,10.0,86,0.00,,,0.00,0.000000,,2013-04-19 09:12:00,
2013-04-19 05:21:00,48.0,44.0,-100.00,South,190,2.0,10.0,86,0.00,,,0.00,0.000000,,2013-04-19 09:21:00,
2013-04-19 05:52:00,47.0,44.0,-100.00,ESE,112,0.0,6.0,90,0.00,,,0.00,0.000000,,2013-04-19 09:52:00,
2013-04-19 06:02:00,47.0,44.0,-100.00,ESE,112,0.0,6.0,90,0.00,,,0.00,0.000000,,2013-04-19 10:02:00,
2013-04-19 06:13:00,47.0,44.0,-100.00,ESE,112,0.0,6.0,90,0.00,,,0.00,0.000000,,2013-04-19 10:13:00,
2013-04-19 06:23:00,47.0,44.0,-100.00,ESE,112,0.0,6.0,90,0.00,,,0.00,0.000000,,2013-04-19 10:23:00,
2013-04-19 06:52:00,46.0,45.0,-100.00,East,92,1.0,6.0,95,0.00,,,0.00,4.000000,,2013-04-19 10:52:00,
2013-04-19 07:03:00,46.0,45.0,-100.00,East,92,1.0,6.0,95,0.00,,,0.00,4.000000,,2013-04-19 11:03:00,
2013-04-19 07:11:00,46.0,45.0,-100.00,East,92,1.0,6.0,95,0.00,,,0.00,4.000000,,2013-04-19 11:11:00,
2013-04-19 07:22:00,46.0,45.0,-100.00,East,92,1.0,6.0,95,0.00,,,0.00,4.000000,,2013-04-19 11:22:00,
2013-04-19 07:53:00,48.0,47.0,-100.00,NE,43,0.0,-999.0,98,0.00,,,0.00,24.000000,,2013-04-19 11:53:00,
2013-04-19 08:03:00,48.0,47.0,-100.00,NE,43,0.0,-999.0,98,0.00,,,0.00,24.000000,,2013-04-19 12:03:00,
2013-04-19 08:12:00,48.0,47.0,-100.00,NE,43,0.0,-999.0,98,0.00,,,0.00,24.000000,,2013-04-19 12:12:00,
2013-04-19 08:22:00,48.0,47.0,-100.00,NE,43,0.0,-999.0,98,0.00,,,0.00,24.000000,,2013-04-19 12:22:00,
2013-04-19 08:53:00,49.0,48.0,-100.00,SSE,152,2.0,7.0,97,0.00,,,0.00,73.000000,,2013-04-19 12:53:00,
2013-04-19 09:02:00,49.0,48.0,-100.00,SSE,152,2.0,7.0,97,0.00,,,0.00,73.000000,,2013-04-19 13:02:00,
2013-04-19 09:11:00,49.0,48.0,-100.00,SSE,152,2.0,7.0,97,0.00,,,0.00,73.000000,,2013-04-19 13:11:00,
2013-04-19 09:22:00,49.0,48.0,-100.00,SSE,152,2.0,7.0,97,0.00,,,0.00,73.000000,,2013-04-19 13:22:00,
2013-04-19 09:52:00,51.0,50.0,-100.00,SSE,153,3.0,8.0,96,0.00,,,0.00,172.000000,,2013-04-19 13:52:00,
2013-04-19 10:02:00,51.0,50.0,-100.00,SSE,153,3.0,8.0,96,0.00,,,0.00,172.000000,,2013-04-19 14:02:00,
2013-04-19 10:11:00,51.0,50.0,-100.00,SSE,153,3.0,8.0,96,0.00,,,0.00,172.000000,,2013-04-19 14:11:00,
2013-04-19 10:22:00,51.0,50.0,-100.00,SSE,153,3.0,8.0,96,0.00,,,0.00,172.000000,,2013-04-19 14:22:00,
2013-04-19 10:52:00,57.0,53.0,-100.00,SE,133,5.0,9.0,86,0.00,,,0.00,392.000000,,2013-04-19 14:52:00,
2013-04-19 11:02:00,57.0,53.0,-100.00,SE,133,5.0,9.0,86,0.00,,,0.00,392.000000,,2013-04-19 15:02:00,
2013-04-19 11:12:00,57.0,53.0,-100.00,SE,133,5.0,9.0,86,0.00,,,0.00,392.000000,,2013-04-19 15:12:00,
2013-04-19 11:22:00,57.0,53.0,-100.00,SE,133,5.0,9.0,86,0.00,,,0.00,392.000000,,2013-04-19 15:22:00,
2013-04-19 11:52:00,59.0,53.0,-100.00,SSE,151,5.0,10.0,80,0.00,,,0.00,571.000000,,2013-04-19 15:52:00,
2013-04-19 12:03:00,59.0,53.0,-100.00,SSE,151,5.0,10.0,80,0.00,,,0.00,571.000000,,2013-04-19 16:03:00,
2013-04-19 12:13:00,59.0,53.0,-100.00,SSE,151,5.0,10.0,80,0.00,,,0.00,571.000000,,2013-04-19 16:13:00,
2013-04-19 12:23:00,59.0,53.0,-100.00,SSE,151,5.0,10.0,80,0.00,,,0.00,571.000000,,2013-04-19 16:23:00,
2013-04-19 12:53:00,60.0,53.0,-100.00,SE,139,5.0,14.0,77,0.00,,,0.00,579.000000,,2013-04-19 16:53:00,
2013-04-19 13:02:00,60.0,53.0,-100.00,SE,139,5.0,14.0,77,0.00,,,0.00,579.000000,,2013-04-19 17:02:00,
2013-04-19 13:12:00,60.0,53.0,-100.00,SE,139,5.0,14.0,77,0.00,,,0.00,579.000000,,2013-04-19 17:12:00,
2013-04-19 13:22:00,60.0,53.0,-100.00,SE,139,5.0,14.0,77,0.00,,,0.00,579.000000,,2013-04-19 17:22:00,
2013-04-19 13:52:00,66.0,53.0,-100.00,SE,135,8.0,12.0,64,0.00,,,0.00,560.000000,,2013-04-19 17:52:00,
2013-04-19 14:02:00,66.0,53.0,-100.00,SE,135,8.0,12.0,64,0.00,,,0.00,560.000000,,2013-04-19 18:02:00,
2013-04-19 14:13:00,66.0,53.0,-100.00,SE,135,8.0,12.0,64,0.00,,,0.00,560.000000,,2013-04-19 18:13:00,
2013-04-19 14:23:00,66.0,53.0,-100.00,SE,135,8.0,12.0,64,0.00,,,0.00,560.000000,,2013-04-19 18:23:00,
2013-04-19 14:52:00,64.0,54.0,-100.00,SSE,151,7.0,12.0,70,0.00,,,0.00,573.000000,,2013-04-19 18:52:00,
2013-04-19 15:02:00,64.0,54.0,-100.00,SSE,151,7.0,12.0,70,0.00,,,0.00,573.000000,,2013-04-19 19:02:00,
2013-04-19 15:11:00,64.0,54.0,-100.00,SSE,151,7.0,12.0,70,0.00,,,0.00,573.000000,,2013-04-19 19:11:00,
2013-04-19 15:21:00,64.0,54.0,-100.00,SSE,151,7.0,12.0,70,0.00,,,0.00,573.000000,,2013-04-19 19:21:00,
2013-04-19 15:52:00,63.0,53.0,-100.00,SE,142,5.0,17.0,69,0.00,,,0.00,439.000000,,2013-04-19 19:52:00,
2013-04-19 16:02:00,63.0,53.0,-100.00,SE,142,5.0,17.0,69,0.00,,,0.00,439.000000,,2013-04-19 20:02:00,
2013-04-19 16:11:00,63.0,53.0,-100.00,SE,142,5.0,17.0,69,0.00,,,0.00,439.000000,,2013-04-19 20:11:00,
2013-04-19 16:22:00,63.0,53.0,-100.00,SE,142,5.0,17.0,69,0.00,,,0.00,439.000000,,2013-04-19 20:22:00,
2013-04-19 16:52:00,61.0,53.0,-100.00,SSE,164,6.0,17.0,75,0.00,,,0.00,145.000000,,2013-04-19 20:52:00,
2013-04-19 17:01:00,61.0,53.0,-100.00,SSE,164,6.0,17.0,75,0.00,,,0.00,145.000000,,2013-04-19 21:01:00,
2013-04-19 17:12:00,61.0,53.0,-100.00,SSE,164,6.0,17.0,75,0.00,,,0.00,145.000000,,2013-04-19 21:12:00,
2013-04-19 17:21:00,61.0,53.0,-100.00,SSE,164,6.0,17.0,75,0.00,,,0.00,145.000000,,2013-04-19 21:21:00,
2013-04-19 17:53:00,60.0,56.0,-100.00,South,180,6.0,15.0,86,0.00,,,0.00,86.000000,,2013-04-19 21:53:00,
2013-04-19 18:02:00,60.0,56.0,-100.00,South,180,6.0,15.0,86,0.00,,,0.00,86.000000,,2013-04-19 22:02:00,
2013-04-19 18:12:00,60.0,56.0,-100.00,South,180,6.0,15.0,86,0.00,,,0.00,86.000000,,2013-04-19 22:12:00,
2013-04-19 18:23:00,60.0,56.0,-100.00,South,180,6.0,15.0,86,0.00,,,0.00,86.000000,,2013-04-19 22:23:00,
2013-04-19 18:52:00,55.0,52.0,-100.00,SE,126,4.0,12.0,90,0.00,,,0.00,50.000000,,2013-04-19 22:52:00,
2013-04-19 19:03:00,55.0,52.0,-100.00,SE,126,4.0,12.0,90,0.00,,,0.00,50.000000,,2013-04-19 23:03:00,
2013-04-19 19:11:00,55.0,52.0,-100.00,SE,126,4.0,12.0,90,0.00,,,0.00,50.000000,,2013-04-19 23:11:00,
2013-04-19 19:22:00,55.0,52.0,-100.00,SE,126,4.0,12.0,90,0.00,,,0.00,50.000000,,2013-04-19 23:22:00,
2013-04-19 19:53:00,56.0,54.0,-100.00,SE,142,4.0,12.0,93,0.00,,,0.00,12.000000,,2013-04-19 23:53:00,
2013-04-19 20:02:00,56.0,54.0,-100.00,SE,142,4.0,12.0,93,0.00,,,0.00,12.000000,,2013-04-20 00:02:00,
2013-04-19 20:12:00,56.0,54.0,-100.00,SE,142,4.0,12.0,93,0.00,,,0.00,12.000000,,2013-04-20 00:12:00,
2013-04-19 20:22:00,56.0,54.0,-100.00,SE,142,4.0,12.0,93,0.00,,,0.00,12.000000,,2013-04-20 00:22:00,
2013-04-19 20:52:00,55.0,54.0,-100.00,SSE,165,6.0,18.0,96,0.00,,,0.00,1.000000,,2013-04-20 00:52:00,
2013-04-19 21:02:00,55.0,54.0,-100.00,SSE,165,6.0,18.0,96,0.00,,,0.00,1.000000,,2013-04-20 01:02:00,
2013-04-19 21:11:00,55.0,54.0,-100.00,SSE,165,6.0,18.0,96,0.00,,,0.00,1.000000,,2013-04-20 01:11:00,
2013-04-19 21:21:00,55.0,54.0,-100.00,SSE,165,6.0,18.0,96,0.00,,,0.00,1.000000,,2013-04-20 01:21:00,
2013-04-19 21:52:00,57.0,55.0,-100.00,SE,145,3.0,14.0,94,0.00,,,0.00,0.000000,,2013-04-20 01:52:00,
2013-04-19 22:02:00,57.0,55.0,-100.00,SE,145,3.0,14.0,94,0.00,,,0.00,0.000000,,2013-04-20 02:02:00,
2013-04-19 22:11:00,57.0,55.0,-100.00,SE,145,3.0,14.0,94,0.00,,,0.00,0.000000,,2013-04-20 02:11:00,
2013-04-19 22:22:00,57.0,55.0,-100.00,SE,145,3.0,14.0,94,0.00,,,0.00,0.000000,,2013-04-20 02:22:00,
2013-04-19 22:52:00,58.0,57.0,-100.00,South,178,4.0,12.0,95,0.00,,,0.00,0.000000,,2013-04-20 02:52:00,
2013-04-19 23:01:00,58.0,57.0,-100.00,South,178,4.0,12.0,95,0.00,,,0.00,0.000000,,2013-04-20 03:01:00,
2013-04-19 23:11:00,58.0,57.0,-100.00,South,178,4.0,12.0,95,0.00,,,0.00,0.000000,,2013-04-20 03:11:00,
2013-04-19 23:21:00,58.0,57.0,-100.00,South,178,4.0,12.0,95,0.00,,,0.00,0.000000,,2013-04-20 03:21:00,
2013-04-19 23:53:00,62.0,59.0,-100.00,South,181,5.0,13.0,91,0.00,,,0.00,0.000000,,2013-04-20 03:53:00,